CZ-6A DEB

Satellite information

Favourite Embed

Satellite Type and Status

DEBRISIN ORBIT

Key statistics

Satellite CZ-6A DEB at a glance.

Uptime

274

Days in orbit

Revolutions

≈ 14.2

Per day

Orbit

LEO

Low Earth Orbit

Inclination

89.1

Latest

Satellite identification and parameters

Extended collection of information and parameters for CZ-6A DEB.

Object identification

Identified? True

Debris? True

Object name: CZ-6A DEB

International designator: 2024-140KX

Object number (NORAD): 60892

Object ID (CCSDS): 60892

Country: PEOPLES REPUBLIC OF CHINA (PRC)

Current information (Y/N): Y

RCS size: SMALL

Orbital parameters

Period: 101.452 minutes

Inclination: 89.1335 deg

SMA: 7205.55 km

Apoapsis: 866.252 km

Periapsis: 788.578 km

RAAN: 324.8244 deg

Eccentricy: 0.0053899

Argument of periapsis: 35.1662 deg

Mean anomaly: 325.3066 deg

Mean motion: 14.19390955 rev/day

Mean motion (dot): 0.00000576 rev/day2

B* drag term: 0.0002636 1/REarth

Two-line elements (TLE)

Creation date: May 7, 2025, 3:14 a.m.

Reference frame: TEME

Reference center: EARTH

Epoch: May 6, 2025, 1:18 a.m. UTC

TLE line 0: 0 CZ-6A DEB

TLE line 1: 1 60892U 24140KX 25126.05463384 .00000576 00000-0 26360-3 0 9993

TLE line 2: 2 60892 89.1335 324.8244 0053899 35.1662 325.3066 14.19390955 36909

Live tracking on map

Real-time ground track for satellite CZ-6A DEB.

In-orbit conjunctions

A list of the most updated potential collisions computed for object CZ-6A DEB.

Target Orbit TCA Probability of collision Miss distance Type
CZ-6A DEB LEO 2025-03-02 04:13:52 0.001711397 537.0 (m) DEBRIS
NOAA 16 DEB SSO 2024-12-20 07:02:58 0.0001323766 293.0 (m) DEBRIS
FENGYUN 1C DEB SSO 2024-11-15 05:04:19 0.0003924799 319.0 (m) DEBRIS
FENGYUN 1C DEB SSO 2024-10-22 10:35:38 0.0001652018 542.0 (m) DEBRIS
CZ-6A DEB LEO 2024-09-24 23:40:16 0.0005763266 180.0 (m) DEBRIS

Associated space launch

18 Low Earth Orbit communication satellites with Ku, Q and V band payloads for the G60 constellation operated by Shanghai Spacecom Satellite Technology (SSST) with funding backed by the Shanghai local government. Initial constellation will consist of 1296 satellites by 2027 with long term plans to expand it to 12000 satellites.

CZ-6A DEB was lifted into orbit during the mission ‘Long March 6A | G60 Polar Group 01’, on board a Long March 6A space rocket.

The launch took place on Aug. 6, 2024, 6:42 a.m. from Launch Complex 9A.

For more information about the launch, click the button.

Launch to space Long March 6A | G60 Polar Group 01
Long March 6A | G60 Polar Group 01

Agency: N/A

Status: Launch Successful

Launch date: Aug. 6, 2024, 6:42 a.m. UTC

Rocket: Long March 6A

Launch pad: Launch Complex 9A

Location: Taiyuan Satellite Launch Center, People's Republic of China

...

Latest news about this satellite

News about space launch
Brightness of first Chinese broadband constellation satellites alarms astronomers

The first satellites of a Chinese broadband constellation are significantly brighter than those of Western systems, posing a new challenge for astronomers.

News about space launch
Chinese rocket stage breaks up into cloud of more than 700 pieces of space debris

HELSINKI — A Chinese Long March 6A rocket’s upper stage has fragmented into a cloud of over 700 pieces of space debris, adding to concerns about long-term orbital safety. China […]

News about space launch
China's Thousand Sails Megaconstellation Kicks Off with Dangerous Debris Field

China's Thousand Sails Megaconstellation Kicks Off with Dangerous Debris Field


Newsletter sign-up

Weekly statistics, charts and insights to help you stay on top of the space industry.